FW6627 Weather Reports


time (UTC)temp
F
wind
direction
speed
knots
gust
knots
rain 1hr
in
rain 24hr
in
rain mn
in
humidity
%
barometer
mb
20260505070043 62 0 0.0 1.7 0.00 0.00 0.00 61 1011.5
20260505064535 62 84 0.0 2.6 0.00 0.00 0.00 61 1011.5
20260505063039 62 0 0.0 1.7 0.00 0.00 0.00 60 1011.5
20260505061546 63 0 0.0 0.9 0.00 0.00 0.00 60 1011.4
20260505060042 63 0 0.0 3.5 0.00 0.00 0.00 59 1011.2
20260505054545 62 0 0.0 1.7 0.00 0.00 0.00 59 1011.3
20260505053042 62 0 0.0 0.9 0.00 0.00 0.00 59 1011.1
20260505051541 63 0 0.0 0.0 0.00 0.00 0.00 58 1011.2
20260505041539 64 323 0.0 0.0 0.00 0.00 0.00 55 1011.4
20260505040037 65 0 0.0 0.0 0.00 0.00 0.00 54 1011.2
20260505034541 65 0 0.0 0.0 0.00 0.00 0.00 52 1011.1
20260505033102 66 0 0.0 0.9 0.00 0.00 0.00 52 1011.2
20260505031540 67 0 0.0 0.9 0.00 0.00 0.00 51 1011.2
20260505030040 67 0 0.0 0.9 0.00 0.00 0.00 50 1011.1
20260505024536 67 0 0.0 0.9 0.00 0.00 0.00 50 1010.9
20260505023044 67 0 0.0 0.9 0.00 0.00 0.00 50 1011.1
20260505021540 67 0 0.0 0.9 0.00 0.00 0.00 49 1011.0
20260505020046 67 0 0.0 0.0 0.00 0.00 0.00 49 1011.0
20260505014542 68 295 0.0 0.9 0.00 0.00 0.00 48 1010.8
20260505013408 68 0 0.0 0.9 0.00 0.00 0.00 47 1010.6
20260505011536 69 0 0.0 0.9 0.00 0.00 0.00 47 1010.6
20260505010041 70 0 0.0 0.9 0.00 0.00 0.00 46 1010.4
20260505004547 70 0 0.0 0.9 0.00 0.00 0.00 45 1010.4
20260505003040 71 0 0.0 0.9 0.00 0.00 0.00 45 1010.2
20260505001539 71 0 0.0 0.9 0.00 0.00 0.00 44 1010.2
20260505000044 72 0 0.0 0.9 0.00 0.00 0.00 43 1010.3
20260504234558 72 0 0.0 1.7 0.00 0.00 0.00 42 1010.2
20260504233041 73 0 0.0 0.9 0.00 0.00 0.00 41 1010.0
20260504231548 74 0 0.0 3.5 0.00 0.00 0.00 40 1009.9
20260504230042 74 0 0.0 1.7 0.00 0.00 0.00 38 1009.9
20260504224538 75 305 0.9 7.8 0.00 0.00 0.00 37 1009.9
20260504223040 76 216 0.0 2.6 0.00 0.00 0.00 36 1009.9
20260504221535 77 328 0.0 5.2 0.00 0.00 0.00 35 1009.9
20260504220042 78 96 0.9 6.1 0.00 0.00 0.00 34 1010.0
20260504214542 78 0 0.0 5.2 0.00 0.00 0.00 33 1010.1
20260504213046 78 308 0.9 4.3 0.00 0.00 0.00 32 1010.2
20260504211540 79 187 0.0 4.3 0.00 0.00 0.00 32 1010.2
20260504210042 79 332 0.9 6.1 0.00 0.00 0.00 31 1010.1
20260504204613 80 0 0.0 7.8 0.00 0.00 0.00 31 1010.1
20260504203036 80 0 0.0 3.5 0.00 0.00 0.00 30 1010.3
20260504200042 80 0 0.0 5.2 0.00 0.00 0.00 30 1010.4
20260504194548 80 0 0.0 1.7 0.00 0.00 0.00 30 1010.8
20260504193041 79 309 0.0 2.6 0.00 0.00 0.00 30 1011.0
20260504191545 80 0 0.0 2.6 0.00 0.00 0.00 30 1011.3
20260504190040 79 0 0.0 3.5 0.00 0.00 0.00 30 1011.5
20260504184558 79 0 0.0 2.6 0.00 0.00 0.00 30 1011.7
20260504183046 78 93 0.0 5.2 0.00 0.00 0.00 32 1011.9
20260504181541 78 236 0.0 3.5 0.00 0.00 0.00 31 1012.0
20260504180038 77 0 0.0 3.5 0.00 0.00 0.00 33 1012.3
20260504174536 77 0 0.0 7.0 0.00 0.00 0.00 33 1012.5
20260504171545 77 288 0.0 2.6 0.00 0.00 0.00 33 1013.1
20260504081541 51 0 0.0 0.9 0.00 0.00 0.00 68 1015.7